TimeMDT,TemperatureF,Dew PointF,Humidity,Sea Level PressureIn,VisibilityMPH,Wind Direction,Wind SpeedMPH,Gust SpeedMPH,PrecipitationIn,Events,Conditions,WindDirDegrees,DateUTC
12:53 AM,23.0,18.0,81,30.58,10.0,Calm,Calm,-,N/A,,Overcast,0,2012-10-26 06:53:00
1:53 AM,21.9,17.1,82,30.55,10.0,ESE,3.5,-,N/A,,Overcast,120,2012-10-26 07:53:00
2:53 AM,19.9,15.1,81,30.53,10.0,SE,5.8,-,N/A,,Mostly Cloudy,130,2012-10-26 08:53:00
3:53 AM,19.0,15.1,85,30.52,10.0,SE,4.6,-,N/A,,Partly Cloudy,130,2012-10-26 09:53:00
4:53 AM,21.0,17.1,85,30.50,10.0,WSW,3.5,-,N/A,,Overcast,240,2012-10-26 10:53:00
5:53 AM,25.0,18.0,75,30.47,10.0,SSW,11.5,-,N/A,,Overcast,200,2012-10-26 11:53:00
6:53 AM,24.8,19.4,80,30.28,10.0,SSW,10.4,-,N/A,,Overcast,210,2012-10-26 12:53:00
7:53 AM,25.0,19.0,78,30.43,10.0,SSW,12.7,-,N/A,,Clear,200,2012-10-26 13:53:00
8:53 AM,28.0,21.0,75,30.42,10.0,SSW,13.8,-,N/A,,Clear,200,2012-10-26 14:53:00
9:53 AM,-9999,-9999,N/A,30.24,-9999.0,North,-9999.0,-,N/A,,Unknown,0,2012-10-26 15:53:00
10:53 AM,28.4,23.0,80,30.38,10.0,North,-9999.0,-,N/A,,Clear,0,2012-10-26 16:53:00
11:53 AM,30.2,24.8,80,30.36,10.0,SSW,13.8,-,N/A,,Clear,210,2012-10-26 17:53:00
12:53 PM,39.0,24.1,55,30.32,10.0,SW,13.8,-,N/A,,Clear,230,2012-10-26 18:53:00
1:53 PM,39.9,24.1,53,30.28,10.0,SW,16.1,-,N/A,,Clear,230,2012-10-26 19:53:00
2:53 PM,39.9,24.1,53,30.26,10.0,WSW,13.8,-,N/A,,Clear,240,2012-10-26 20:53:00
3:53 PM,39.9,24.1,53,30.25,10.0,WSW,10.4,-,N/A,,Clear,240,2012-10-26 21:53:00
4:53 PM,39.0,25.0,57,30.25,10.0,WSW,6.9,-,N/A,,Overcast,240,2012-10-26 22:53:00
5:53 PM,35.1,24.1,64,30.24,10.0,SW,4.6,-,N/A,,Scattered Clouds,230,2012-10-26 23:53:00
6:53 PM,36.0,24.1,62,30.24,10.0,Calm,Calm,-,N/A,,Overcast,0,2012-10-27 00:53:00
7:53 PM,33.1,25.0,72,30.24,10.0,NE,5.8,-,N/A,,Overcast,40,2012-10-27 01:53:00
8:53 PM,34.0,24.1,67,30.22,10.0,ENE,10.4,-,N/A,,Overcast,70,2012-10-27 02:53:00
9:53 PM,32.0,24.8,75,30.09,10.0,NE,6.9,-,N/A,,Overcast,40,2012-10-27 03:53:00
10:53 PM,30.0,23.0,75,30.23,10.0,NE,9.2,-,N/A,,Overcast,50,2012-10-27 04:53:00
11:53 PM,28.0,23.0,81,30.22,10.0,ENE,8.1,-,N/A,,Overcast,60,2012-10-27 05:53:00